Theta_e
324 324 325 326 326 327 327 327 326 326 326 325 325 323 322 322 322 323 324 324 324 328 327 322 321 325 325 325 323 319 315 306 304 302 300 300 311 317 321 322 322 322 314 306 305 306 304 304 303 303 304 304 299 301 298 298 296 302 299 296 294 293 292 294 292 293 291 291 291 290 292 294 292 289 290 290 290 290 290 289 292 291 289 292 291 288 288 289
323 324 324 324 325 327 326 327 327 326 326 325 323 322 321 322 322 323 323 324 326 326 325 324 322 324 325 323 321 317 312 304 303 301 300 307 319 322 321 321 320 319 317 308 306 305 304 303 302 303 303 300 300 298 299 296 298 300 296 296 293 294 293 293 293 292 291 291 293 292 291 293 292 292 290 289 290 290 289 291 291 290 292 293 291 289 288 289
323 322 323 324 324 325 326 327 327 326 325 324 323 322 321 321 322 323 323 324 327 327 325 324 321 321 322 322 319 312 306 302 302 298 302 318 319 321 319 320 318 313 307 307 304 305 304 302 301 301 300 299 298 296 299 294 298 293 297 294 294 292 290 291 291 291 289 291 291 291 290 290 291 291 290 288 290 289 289 291 291 290 291 293 293 290 289 289
322 322 322 323 323 324 326 326 326 327 325 323 322 321 321 321 321 322 323 324 324 328 324 324 323 319 318 321 319 314 304 302 296 298 303 316 319 320 317 319 318 310 308 304 303 304 302 303 302 302 299 298 298 296 297 294 296 293 295 293 293 291 291 289 289 290 289 292 292 292 289 289 291 290 290 290 289 290 290 293 294 293 293 295 296 291 290 289
322 321 322 322 323 324 325 326 326 327 324 323 321 322 321 321 322 322 322 323 324 325 325 323 323 321 316 317 314 309 305 298 295 300 304 315 317 319 315 316 316 307 307 301 304 302 304 303 301 299 300 296 297 297 293 294 292 294 289 289 290 289 290 288 288 288 289 289 291 290 289 290 291 289 289 290 288 291 295 296 296 296 297 296 294 291 290 289
321 321 321 322 323 323 325 326 326 325 323 322 322 322 322 322 321 322 323 323 324 324 324 324 323 321 317 314 315 310 303 292 299 300 311 316 316 316 312 309 310 309 304 304 303 303 303 302 301 299 296 296 293 294 292 292 291 293 289 288 289 288 289 287 288 287 289 290 290 289 291 290 289 290 290 290 290 293 294 294 296 296 296 293 292 291 289 289
321 320 320 321 321 322 324 324 325 324 324 323 323 322 322 321 321 321 323 323 324 324 324 322 320 321 318 316 315 304 298 295 299 302 309 313 314 310 310 305 306 306 305 304 303 303 300 299 299 296 295 294 292 292 291 291 292 295 290 288 287 288 289 286 287 286 287 290 289 290 290 289 289 288 290 288 291 294 294 291 292 291 291 291 290 289 290 290
320 320 320 320 320 321 322 323 324 325 324 324 324 323 321 320 320 321 323 323 323 322 321 321 318 316 315 316 309 299 297 295 300 303 305 310 304 302 303 302 301 304 301 298 300 301 301 299 298 297 296 296 293 293 293 292 294 293 290 288 288 288 287 287 287 287 287 287 287 288 288 289 290 289 285 287 291 293 294 290 289 289 289 288 289 290 290 290
321 321 319 320 320 320 321 322 323 324 324 324 323 323 322 320 320 320 323 324 323 323 321 321 317 313 317 314 303 299 294 299 299 299 301 299 299 299 302 301 301 303 298 299 299 301 302 296 296 298 295 293 293 294 294 293 293 292 290 289 288 288 288 287 287 287 287 288 287 288 288 289 287 287 286 289 292 293 294 290 290 288 288 288 288 290 290 290
321 320 319 319 319 320 321 321 323 323 324 324 323 323 323 321 320 320 323 324 323 324 320 318 319 314 313 306 305 296 296 299 300 300 299 297 299 301 301 299 300 302 302 298 300 301 301 298 298 298 298 294 293 292 291 294 291 290 290 290 289 288 288 287 288 288 287 289 287 287 288 288 286 287 288 292 287 288 290 289 289 288 289 290 289 290 290 289
321 320 319 319 320 320 320 321 321 322 323 323 322 323 323 322 320 322 324 323 323 322 320 317 316 310 304 303 300 293 298 300 302 301 299 298 298 298 297 298 299 302 302 300 298 296 298 299 299 300 302 295 294 291 292 289 290 289 290 290 289 289 288 288 288 287 288 288 286 288 287 288 286 286 287 292 286 288 288 288 288 287 288 290 290 289 290 289
320 319 319 319 320 320 320 320 320 320 320 322 322 323 322 321 322 322 325 321 322 320 319 314 311 304 304 300 297 295 299 300 301 301 300 299 297 295 296 298 300 300 302 299 298 298 298 299 300 300 296 296 291 291 289 290 290 289 290 290 289 290 289 288 288 287 287 288 287 288 285 285 284 285 292 291 287 287 287 288 288 288 288 289 289 289 289 289
320 319 319 319 319 320 320 320 320 321 321 321 322 321 320 321 321 321 323 321 321 316 317 315 311 310 310 298 296 300 299 301 300 299 301 301 297 297 298 298 299 300 301 301 298 298 297 299 301 297 297 297 294 292 292 293 290 291 291 290 290 290 289 287 287 286 287 287 286 287 285 291 285 289 292 287 287 285 285 287 288 288 287 288 288 287 288 288
320 318 319 319 319 320 320 320 320 321 320 320 320 320 320 320 321 320 321 322 318 317 315 314 308 309 305 295 299 299 299 299 299 301 299 302 300 300 300 299 299 299 299 298 297 299 299 300 300 296 298 296 293 294 292 291 292 290 289 290 288 288 288 287 287 286 287 286 286 288 284 290 292 290 292 289 287 287 288 290 290 289 288 288 288 287 288 288
318 318 319 319 319 320 321 321 320 321 320 320 320 320 320 319 319 320 320 319 318 315 320 314 307 310 300 296 300 301 308 301 301 298 298 300 299 301 300 300 298 297 298 299 298 297 297 299 301 296 293 292 295 294 291 291 290 289 289 288 288 287 290 287 288 286 287 286 287 288 284 288 292 293 289 287 286 286 287 290 291 290 289 288 288 288 288 288
318 318 319 318 318 319 319 319 319 320 320 320 319 319 319 319 317 318 317 316 313 312 313 312 308 304 299 295 297 306 302 298 298 298 297 299 298 300 299 296 297 298 298 296 296 297 299 299 293 293 293 293 293 292 291 291 290 289 288 287 287 286 288 289 285 286 286 286 287 287 286 288 290 289 287 286 286 286 287 288 290 290 290 289 288 289 288 289
318 318 319 318 318 318 319 319 318 319 320 320 319 316 316 316 317 319 315 310 307 307 306 305 302 305 297 297 300 298 296 298 297 300 299 299 298 297 299 300 298 299 298 297 298 298 298 297 290 293 295 292 291 292 290 289 289 288 287 287 287 284 287 287 286 286 286 286 286 287 284 287 290 291 289 284 287 287 286 288 289 289 290 290 290 289 289 289
318 317 318 318 318 318 318 318 318 318 318 319 318 318 315 313 314 313 312 311 311 308 305 305 306 305 295 298 293 295 296 295 298 297 295 299 297 298 299 298 296 297 298 297 298 296 295 294 295 292 292 292 292 291 287 285 286 286 287 286 287 286 285 286 286 287 285 287 284 286 285 286 288 291 292 292 289 288 288 288 289 289 290 290 290 289 289 289
318 318 318 318 318 317 318 318 318 318 317 316 317 318 313 314 311 309 307 305 306 303 300 299 301 295 293 293 294 296 296 296 295 298 299 299 299 297 298 297 296 297 296 294 295 295 294 294 295 292 290 290 290 290 288 286 286 287 286 285 284 283 286 286 288 286 285 285 286 286 284 287 289 290 291 292 291 289 288 289 289 288 289 288 289 289 289 289
319 318 318 318 318 318 317 317 317 317 317 313 326 313 314 305 306 302 307 303 296 295 296 297 294 295 294 294 295 298 296 295 296 298 298 298 299 298 297 297 298 299 297 294 295 291 290 292 289 289 290 289 286 286 286 284 286 285 285 283 284 284 285 287 286 285 286 284 285 286 286 286 287 289 290 291 291 289 288 287 288 288 288 288 288 288 289 289
318 319 318 318 317 317 317 317 317 317 316 316 318 311 300 301 298 295 295 296 295 294 296 296 294 293 294 294 295 296 295 295 296 297 298 298 296 296 296 296 295 295 290 288 291 292 293 291 289 289 286 287 286 285 285 285 286 286 285 283 285 284 283 287 284 284 286 283 285 286 284 285 287 290 291 291 288 287 288 288 288 288 288 288 288 289 289 290
318 318 318 317 317 316 317 316 317 315 312 314 316 307 304 307 303 304 304 295 296 297 293 293 291 294 294 294 293 293 293 294 295 297 299 300 297 295 296 295 293 292 290 291 291 292 291 290 287 286 286 286 285 285 285 286 285 284 284 284 283 286 285 287 283 284 284 283 283 284 283 285 288 290 291 288 287 288 287 287 288 287 288 289 288 289 289 290
317 318 317 317 316 316 316 317 315 313 314 318 313 307 305 307 307 307 304 301 296 295 297 297 297 294 296 295 294 292 293 292 292 295 295 297 297 293 294 295 294 290 290 292 291 289 290 290 284 284 286 286 284 284 285 285 285 285 284 284 285 285 282 284 284 282 284 283 283 283 281 285 289 290 287 286 285 286 286 286 287 287 287 289 289 290 290 290
317 318 317 315 315 315 316 314 315 315 306 306 307 304 304 306 302 303 306 296 294 295 297 295 293 294 294 295 296 295 293 292 291 294 298 297 295 293 295 292 290 290 292 288 290 291 290 286 284 284 284 286 285 283 284 285 286 285 285 284 284 284 284 282 284 284 286 285 282 282 284 286 289 289 290 286 284 284 287 286 286 287 288 288 288 288 288 289
316 316 316 315 315 316 314 313 310 305 305 305 303 302 303 304 303 304 303 294 294 295 296 296 293 293 295 297 296 296 292 292 293 293 295 296 294 296 293 290 292 291 290 287 289 289 287 284 284 285 285 285 285 285 284 285 285 286 285 285 285 283 282 283 283 282 284 284 281 281 282 286 288 288 289 290 288 289 288 287 291 291 289 288 287 289 291 290
315 316 315 315 314 315 313 312 307 310 307 307 304 302 300 301 304 305 304 290 288 297 298 292 296 293 296 295 295 294 293 294 293 293 296 294 294 295 291 292 290 291 288 288 289 288 286 282 283 285 285 284 284 285 284 284 285 283 285 283 283 282 281 282 281 282 282 281 283 282 280 281 289 287 289 287 286 289 290 290 292 291 289 288 289 291 291 292
315 315 315 316 315 314 315 306 302 308 307 305 305 303 303 306 303 306 296 289 286 294 291 296 295 294 298 294 293 296 291 292 293 293 293 293 294 297 293 292 291 289 290 291 288 287 284 283 283 283 284 284 284 284 284 284 284 284 282 283 282 281 281 281 280 281 281 284 284 281 283 281 282 288 286 285 286 289 291 292 292 293 291 289 290 290 291 291
316 316 316 315 313 311 309 303 306 308 305 304 300 301 304 306 306 308 293 279 279 299 291 295 295 299 297 294 293 293 292 292 292 292 293 293 294 295 293 292 291 292 287 289 286 288 285 283 283 283 283 284 285 285 284 286 285 285 281 282 282 281 281 281 281 281 281 279 281 281 282 280 281 287 284 286 288 289 290 291 292 293 292 291 293 293 292 291
315 315 314 313 312 310 309 307 307 307 303 302 299 303 306 306 306 299 290 280 288 292 300 293 299 295 294 294 293 289 293 293 292 294 293 292 294 293 293 291 290 288 286 289 288 285 286 284 286 286 285 285 285 283 283 284 284 283 283 282 281 281 281 281 281 281 279 279 280 280 281 280 282 288 289 287 288 286 287 289 290 291 291 291 291 292 293 292
316 316 315 312 312 317 312 309 306 303 300 300 300 303 303 302 299 290 283 277 292 287 293 295 294 292 292 292 293 291 292 290 290 292 293 292 292 294 288 290 291 290 287 288 288 286 284 286 285 285 284 285 284 282 281 283 282 283 283 282 281 281 281 280 281 280 279 277 280 278 279 280 278 286 286 285 284 285 287 288 289 290 291 292 293 293 293 292
313 314 314 314 316 308 307 305 305 303 301 301 303 304 304 304 292 285 275 285 294 292 293 293 291 294 289 290 290 291 290 288 292 292 292 294 292 293 291 288 292 289 286 287 286 285 285 284 286 286 284 284 285 283 283 282 282 283 284 283 285 282 279 280 280 280 277 279 277 278 277 279 277 283 288 289 286 285 286 285 287 288 289 291 291 292 292 292
310 310 310 310 307 305 306 304 306 304 303 300 305 307 301 288 288 283 282 295 286 289 288 289 286 285 287 286 286 286 286 289 288 290 288 287 288 290 289 288 288 286 286 287 287 284 285 285 284 284 286 284 284 285 284 284 284 285 284 285 281 281 282 278 280 277 279 278 277 278 278 278 279 284 288 289 288 287 287 287 287 288 289 289 290 291 291 291
310 310 308 306 307 308 306 306 302 302 302 303 307 304 298 288 279 287 284 288 286 288 288 286 286 287 285 285 287 285 284 287 289 287 285 286 287 286 281 285 284 286 283 285 284 285 286 279 283 284 284 285 284 284 285 284 284 284 284 282 280 278 276 273 278 278 278 277 276 277 279 277 283 286 288 287 288 288 287 287 288 288 288 289 289 290 290 291
308 309 307 304 305 304 304 302 301 300 304 310 306 300 289 283 282 285 284 287 287 286 287 286 286 285 284 287 285 283 287 285 286 287 287 287 286 287 286 283 285 287 285 285 284 283 282 284 284 284 284 282 284 284 283 284 284 283 282 282 282 281 277 272 276 274 276 277 276 277 276 278 279 284 285 288 288 288 287 286 287 288 289 289 289 289 291 291
306 305 305 304 304 301 302 300 302 302 306 312 299 291 283 284 283 285 286 288 286 285 286 283 283 284 285 284 284 284 283 285 285 285 287 286 287 286 286 286 283 284 286 284 284 282 283 284 282 281 281 281 283 282 281 283 283 281 282 283 281 280 284 278 279 277 276 275 275 273 276 283 284 288 287 288 288 286 288 289 288 289 289 290 289 289 289 289
309 309 308 303 304 301 302 303 302 302 310 304 299 286 286 287 286 285 287 287 285 286 285 283 284 286 285 285 282 283 286 284 286 286 285 284 285 285 283 283 284 284 285 284 284 284 282 283 281 282 281 281 282 281 282 283 281 282 281 281 281 282 282 279 277 274 273 273 273 280 278 282 286 287 287 288 288 287 287 287 288 288 288 288 288 288 289 289
310 308 307 304 305 303 302 302 302 309 307 302 290 286 288 286 285 285 290 286 285 285 284 285 287 284 283 284 284 282 284 285 284 285 286 283 285 284 284 283 281 283 283 284 285 284 281 283 281 281 281 280 281 281 282 282 282 283 280 281 281 280 281 280 275 276 275 273 275 276 276 279 279 278 287 288 286 286 286 286 287 287 287 287 287 288 288 288
307 302 301 303 302 303 303 301 305 306 305 299 287 290 284 287 283 286 286 285 285 284 286 285 286 284 283 282 285 283 284 284 286 285 285 286 285 285 284 284 281 282 282 283 284 284 285 281 282 279 280 282 281 281 282 282 283 282 281 283 280 278 277 279 276 272 272 272 274 277 276 275 278 280 284 284 283 283 284 285 286 285 286 286 286 287 288 289
301 305 300 300 302 301 303 301 307 307 303 289 285 286 287 285 284 286 286 284 286 284 286 284 284 283 284 284 284 281 280 285 283 285 283 284 284 284 284 284 283 282 282 282 284 285 285 280 282 278 281 281 282 283 281 281 282 282 282 282 281 281 279 277 278 277 276 272 272 274 275 276 281 283 283 283 282 283 284 284 285 285 285 286 286 287 287 287
305 302 300 302 302 301 300 307 308 300 295 288 287 286 285 286 286 285 284 285 286 285 285 284 282 285 283 284 282 285 281 281 283 284 283 284 284 285 283 284 283 282 282 281 283 284 284 284 279 282 280 282 282 283 282 283 281 279 280 279 279 279 279 279 276 277 276 274 274 272 271 278 283 285 285 283 283 284 284 284 284 285 285 286 286 286 287 287
296 301 301 306 302 300 306 302 296 291 292 286 286 286 285 286 286 285 285 284 286 285 285 285 285 286 284 284 283 283 283 282 281 284 283 284 284 284 281 280 281 283 282 282 283 284 283 283 280 283 282 282 283 280 280 281 283 283 283 281 282 278 277 274 274 275 273 275 273 272 271 279 284 287 285 284 285 285 285 285 284 284 285 286 286 287 287 287
302 293 299 303 301 306 309 298 286 282 288 289 288 287 288 289 286 285 286 285 284 286 286 284 283 284 283 284 284 282 283 283 282 282 283 284 284 283 281 277 279 280 282 284 283 283 282 283 281 279 282 283 280 280 279 279 280 280 282 282 281 281 279 278 272 275 272 274 270 273 270 274 285 287 285 286 286 285 286 285 284 284 285 285 286 287 287 287
301 298 302 300 299 309 300 289 285 287 287 286 284 285 285 286 284 284 286 286 286 285 286 286 286 285 284 285 283 284 283 283 283 284 283 283 282 281 280 278 278 280 282 282 280 282 284 281 279 281 284 279 279 279 279 278 279 280 279 278 280 280 281 279 278 277 275 275 273 274 269 275 284 286 287 287 286 286 286 285 284 284 285 285 286 286 286 286
297 297 302 303 299 309 300 288 286 287 286 285 285 286 285 287 285 285 285 285 286 285 286 285 285 285 284 283 284 284 284 282 284 283 284 281 283 280 278 278 279 282 281 282 282 284 280 283 280 278 279 281 279 280 279 279 279 280 281 279 276 275 273 271 273 274 273 275 275 273 270 277 283 287 288 286 286 284 284 284 285 283 284 285 285 285 285 286
294 294 294 298 298 300 296 293 290 287 284 285 284 285 285 285 285 284 285 286 285 285 285 285 284 285 285 283 283 282 284 283 283 282 281 280 283 278 276 275 277 281 281 280 283 283 282 282 280 277 274 272 274 276 277 280 281 281 278 276 274 276 273 275 275 274 271 274 274 273 274 280 285 286 285 285 284 283 283 284 285 285 284 284 284 284 284 285
300 289 293 296 294 293 288 285 291 290 283 281 284 283 282 285 285 283 285 286 285 284 284 285 284 285 284 283 284 283 283 284 283 282 280 283 281 281 279 278 278 281 281 282 281 281 280 278 280 281 279 279 281 281 280 281 280 278 280 278 277 274 273 275 276 274 272 275 273 276 277 278 280 282 282 282 282 281 281 282 282 283 284 284 283 283 284 285
294 292 288 288 295 293 288 288 288 288 289 288 286 283 283 283 284 283 285 286 284 285 284 285 285 284 283 284 283 283 282 282 282 280 280 280 280 280 276 278 279 281 281 283 281 281 279 279 280 279 280 281 282 281 281 279 277 279 277 278 277 274 273 275 274 275 278 274 272 278 279 276 278 281 281 280 281 281 282 282 282 283 283 282 282 283 285 283
292 289 291 290 290 288 288 288 286 287 284 287 285 283 282 284 284 284 282 284 285 284 285 283 284 285 285 285 283 282 281 282 280 281 280 276 279 280 281 279 281 280 281 281 280 281 280 278 275 273 277 280 280 279 280 278 278 278 278 278 278 276 273 273 274 277 278 273 272 277 279 276 278 280 280 281 281 281 281 282 283 283 282 282 282 282 282 282
292 288 290 286 290 287 285 285 285 289 288 286 287 284 283 283 284 284 284 284 284 284 284 284 284 284 284 283 284 283 281 281 282 279 276 279 278 281 282 279 280 281 281 281 280 275 280 279 273 270 275 279 280 279 278 278 277 277 277 278 279 276 275 276 277 278 277 275 277 278 277 277 279 279 281 282 283 282 282 283 282 281 281 281 282 282 281 281
291 294 289 288 288 285 283 284 285 288 288 285 286 285 284 283 285 283 282 285 284 284 284 283 285 282 282 282 284 282 284 285 282 283 281 279 280 279 281 282 281 282 281 279 278 279 279 278 275 274 274 278 277 275 277 277 277 276 277 278 278 278 277 277 275 276 277 276 277 277 276 275 281 282 281 283 283 282 282 280 280 280 281 281 281 281 281 281
295 291 295 292 288 286 284 285 288 288 286 286 286 284 285 282 285 285 284 284 285 284 283 285 285 283 281 282 282 284 285 282 284 283 282 282 282 283 282 281 283 281 279 278 278 278 277 277 272 274 275 277 277 276 277 277 276 275 276 277 277 277 275 277 275 278 276 275 276 276 274 275 280 282 281 281 281 280 279 279 279 279 281 281 281 280 280 280
292 289 289 296 287 283 286 282 284 286 288 287 287 286 286 287 285 283 286 283 283 284 285 285 285 285 283 282 283 285 283 283 284 283 283 282 283 282 281 281 282 282 280 278 272 278 275 277 276 276 275 276 278 277 277 276 275 273 274 276 277 278 278 278 279 279 279 279 275 273 274 279 280 281 278 278 279 279 279 279 279 280 281 281 280 280 280 280
Wind_Speed
9 8 8 8 8 7 6 5 4 4 5 4 4 6 7 7 7 7 7 6 5 2 1 4 4 2 3 2 1 1 3 8 14 15 17 4 4 14 13 12 13 12 1 3 3 3 3 6 7 6 3 4 5 1 2 3 4 3 0 0 2 2 4 4 5 6 2 1 8 9 10 7 6 5 3 3 5 6 3 7 6 7 10 9 3 2 2 2
9 8 8 8 7 6 5 5 5 4 4 4 5 6 7 7 8 7 7 6 4 3 1 1 3 2 2 3 2 2 2 4 11 15 12 3 8 12 12 11 10 9 4 2 2 3 3 5 4 5 2 3 3 3 3 3 5 3 2 2 3 1 2 2 2 5 2 3 7 7 6 7 1 6 5 5 6 6 8 11 9 11 13 12 11 9 5 6
8 8 7 7 7 6 5 5 5 4 3 4 5 5 6 7 7 7 7 7 7 5 1 1 3 2 1 4 4 1 3 2 10 14 12 12 15 14 14 12 10 7 3 3 1 4 5 2 1 2 5 4 7 3 4 5 5 2 3 2 2 3 4 2 1 4 3 2 7 7 5 4 2 3 5 6 4 4 11 9 9 12 15 15 14 10 9 9
7 7 6 6 6 6 6 5 5 3 3 4 4 5 6 6 6 7 7 6 7 8 1 1 1 2 1 4 5 3 3 2 9 8 10 15 17 15 15 13 10 5 3 5 2 5 4 5 7 5 3 6 2 2 3 6 3 1 3 2 3 2 3 3 0 2 1 2 4 6 4 5 5 4 6 3 6 11 13 13 13 13 16 14 13 11 10 11
7 6 5 6 6 6 5 5 4 2 2 4 5 5 6 7 7 6 6 7 6 9 1 2 1 2 2 3 5 4 2 3 4 7 11 15 17 15 15 12 10 5 2 4 3 5 5 5 2 5 4 3 3 2 4 4 4 2 4 2 2 1 2 3 2 2 1 2 4 5 7 5 5 3 9 9 10 9 5 8 13 15 12 10 10 10 10 12
6 6 5 5 5 5 5 4 4 3 1 4 3 5 6 7 7 7 7 7 7 9 3 1 1 3 3 2 3 1 2 1 4 8 13 14 15 14 14 9 8 1 1 3 2 3 1 4 1 2 2 3 6 4 3 3 3 1 2 2 1 3 2 2 1 2 2 3 5 6 3 4 6 5 10 12 17 10 5 4 4 8 8 1 1 8 11 13
6 5 4 4 5 6 5 3 3 3 3 2 3 6 6 7 7 8 7 7 6 7 2 2 1 4 5 0 7 14 11 4 3 8 14 15 14 11 11 4 3 2 2 3 2 1 3 5 5 3 3 4 3 5 3 3 2 3 4 1 3 0 2 1 1 1 1 3 3 1 2 6 4 9 2 13 17 16 2 1 1 2 2 2 5 8 12 13
6 5 4 4 5 5 4 3 3 3 4 3 4 5 6 6 7 6 6 6 6 7 6 2 1 2 6 1 3 6 7 5 10 6 16 13 12 14 6 3 6 3 9 5 2 4 1 5 4 4 5 2 1 2 3 0 6 3 3 2 3 1 2 1 1 1 1 1 1 2 5 5 6 6 4 15 16 15 10 5 2 1 1 4 8 9 10 11
6 5 5 4 6 5 4 4 3 3 4 3 4 1 6 6 6 6 6 6 6 9 8 2 0 2 3 5 4 4 5 4 3 8 11 12 13 9 7 3 10 7 5 2 4 1 2 2 3 3 3 4 2 4 3 2 2 3 3 4 3 2 2 1 2 2 0 1 1 4 9 2 1 4 13 22 16 11 9 6 7 5 6 7 10 11 11 12
5 4 5 6 7 5 4 3 3 3 4 5 5 6 6 6 6 6 5 5 6 8 7 2 1 1 5 4 2 3 2 2 3 6 9 8 11 5 13 8 5 1 2 5 5 5 2 5 1 7 14 8 2 3 4 3 2 1 6 3 3 2 1 2 2 2 1 1 1 6 10 3 2 1 11 3 2 2 4 8 7 8 12 12 10 9 10 12
5 4 5 7 6 4 3 3 3 4 5 4 5 6 4 5 4 4 4 4 4 5 5 7 3 4 5 1 5 5 1 2 2 5 8 6 10 14 11 8 6 5 10 9 8 3 3 8 7 5 1 4 6 6 3 3 3 5 5 5 4 1 2 1 1 1 2 1 0 5 12 3 4 3 14 7 4 3 3 6 8 9 11 11 12 11 9 10
6 5 5 6 5 5 4 4 4 5 4 4 5 3 5 5 4 3 4 2 3 4 5 4 5 4 8 13 9 4 1 2 2 4 5 9 6 4 5 6 9 5 3 8 6 5 4 5 2 1 2 5 4 4 6 3 2 4 2 3 2 1 4 5 4 1 1 1 1 3 14 11 9 11 17 2 2 2 4 7 8 10 10 11 10 9 9 10
6 5 4 6 5 5 5 4 5 4 4 5 5 5 5 5 4 3 3 2 2 4 4 5 3 1 4 9 3 0 0 1 1 3 6 5 0 2 3 7 11 11 8 7 4 3 3 0 2 13 4 1 4 1 5 3 3 1 3 3 3 3 4 4 2 2 2 1 2 4 8 1 12 16 6 5 3 3 4 7 8 8 8 9 9 8 9 9
5 5 4 6 5 5 4 4 5 3 5 6 6 5 5 4 2 1 2 1 2 4 5 7 2 4 6 4 2 0 2 1 2 4 11 9 2 2 2 7 8 7 6 12 7 3 3 3 12 12 4 4 5 3 7 3 1 2 1 2 2 5 1 2 1 2 4 2 2 3 6 13 2 10 6 3 4 4 9 8 7 8 8 8 8 8 10 11
5 5 3 6 6 6 6 6 6 5 7 7 5 4 4 5 4 3 1 1 3 4 5 4 4 0 6 3 2 1 3 3 6 5 5 10 6 1 5 4 7 7 7 7 4 2 1 3 3 6 5 2 4 4 3 1 2 2 2 1 2 2 1 3 3 2 4 2 2 3 7 12 11 4 7 3 3 5 9 10 9 8 7 7 7 8 9 10
4 4 4 6 6 6 6 6 6 7 6 5 3 3 3 3 4 4 3 2 3 5 3 1 7 5 8 4 3 3 2 4 7 5 0 5 6 3 2 2 1 3 1 4 2 0 4 10 10 2 4 3 3 1 2 1 2 1 0 4 2 1 4 5 3 1 2 1 3 4 9 15 13 4 2 4 4 5 9 11 11 11 9 8 7 7 7 7
3 2 3 6 5 5 6 6 7 6 5 4 2 4 6 4 3 2 4 4 4 1 1 1 2 2 2 2 2 0 3 1 2 2 4 2 5 3 1 1 3 4 2 3 2 2 9 5 2 2 3 3 1 1 3 1 1 1 1 2 1 5 5 4 5 3 1 1 3 6 7 17 20 13 4 6 7 7 11 14 14 12 10 8 7 7 7 8
3 0 3 4 6 6 6 7 6 6 5 4 2 0 1 5 4 2 2 5 2 5 5 2 1 1 4 1 1 3 1 4 5 6 3 2 3 4 3 4 1 1 2 1 5 5 5 2 3 1 2 2 1 1 1 3 4 6 3 3 3 3 7 8 8 3 3 3 6 7 13 23 23 19 17 11 9 10 15 14 14 13 11 10 9 9 10 10
3 2 2 4 5 5 6 6 6 6 7 3 2 3 3 2 2 5 6 4 2 3 3 4 3 1 1 1 2 4 1 1 2 4 5 7 2 1 4 3 3 2 1 2 2 2 5 2 2 2 2 2 1 2 2 2 1 3 3 3 5 6 6 5 1 3 2 7 9 8 11 19 23 21 17 11 8 10 14 13 11 11 10 9 9 9 9 10
3 3 2 1 2 4 5 6 6 6 6 1 1 0 1 1 1 1 5 8 8 3 3 1 1 1 1 2 3 4 0 2 1 4 3 2 4 1 3 3 3 4 2 2 3 4 3 2 1 1 1 4 5 5 4 3 2 2 2 2 6 7 11 4 1 3 1 4 10 8 11 20 24 20 17 13 7 8 10 10 9 8 7 7 7 9 10 11
3 3 3 1 1 2 3 5 6 5 2 2 1 0 1 2 1 2 2 2 2 1 2 1 2 2 3 2 2 6 1 2 2 4 7 2 2 3 1 2 2 1 3 2 1 1 3 3 1 3 4 4 6 5 5 5 2 1 2 2 6 4 8 3 0 3 1 3 4 3 11 21 23 17 12 7 3 6 6 7 7 7 6 6 7 9 9 10
3 2 2 1 2 4 6 7 7 5 2 3 3 1 2 1 2 2 2 1 1 1 1 2 1 0 1 1 1 1 1 2 3 7 2 7 3 3 3 2 2 2 2 1 3 2 1 2 3 5 6 7 6 4 2 1 2 1 2 3 4 4 6 7 3 2 3 2 8 3 11 19 24 14 10 3 3 2 3 4 5 5 5 5 5 7 8 7
4 3 1 2 1 3 3 4 3 3 2 2 2 2 3 3 2 1 1 4 3 1 2 3 2 3 2 2 1 3 1 3 2 7 9 9 1 5 1 1 2 2 1 2 3 3 5 3 3 3 4 7 4 2 2 2 2 3 3 2 4 3 4 3 3 1 4 3 8 8 10 17 16 5 1 3 1 3 5 5 6 5 7 7 6 4 5 7
4 3 3 2 2 3 1 2 2 4 5 2 4 2 1 1 3 1 1 1 0 0 2 1 1 0 2 3 2 3 2 1 1 7 7 6 3 2 0 4 4 1 1 2 3 5 3 3 2 3 2 3 3 2 2 3 4 5 5 5 6 5 2 3 5 7 12 4 2 10 10 8 1 1 1 3 2 4 2 3 6 7 8 8 7 8 9 10
3 2 3 4 4 3 1 2 5 1 2 1 3 1 1 2 1 3 1 1 0 1 1 1 1 1 1 2 1 1 2 3 2 2 4 6 1 2 3 1 2 2 3 1 1 3 2 2 3 4 3 2 3 3 5 3 6 3 7 8 5 2 6 5 6 10 7 3 3 9 7 1 4 1 6 4 4 4 1 3 5 4 4 5 7 9 7 9
4 4 4 3 4 5 3 3 2 0 0 1 1 1 1 0 1 2 2 3 1 1 0 1 1 2 2 1 6 2 3 1 1 2 2 3 2 1 4 1 2 1 3 2 2 2 2 2 3 3 3 3 1 4 1 4 4 3 1 0 2 1 2 6 7 6 5 5 3 2 3 6 6 2 3 4 5 6 1 3 6 2 2 3 6 6 5 5
2 3 1 3 4 6 2 1 1 1 1 1 1 2 1 1 1 1 0 1 0 1 2 0 1 1 1 2 3 1 2 2 1 1 0 2 2 1 2 2 2 2 1 1 1 3 5 3 3 1 3 3 3 5 6 8 1 3 4 4 3 3 6 6 3 3 7 4 5 1 2 4 7 1 3 3 5 4 3 1 1 2 2 3 4 6 8 8
1 3 4 5 5 7 1 4 1 1 1 1 1 1 0 1 1 1 0 2 0 1 2 1 1 1 1 0 1 0 1 4 1 2 1 2 2 2 2 2 2 1 3 2 6 3 2 5 6 5 3 3 5 1 5 8 4 2 3 1 3 3 4 3 3 4 2 4 2 3 2 4 4 1 5 1 7 10 9 8 7 9 9 8 8 7 7 6
5 6 7 7 9 7 5 2 1 2 1 2 2 2 1 1 1 0 0 1 1 2 1 2 1 1 4 3 3 2 1 3 2 3 3 2 4 2 3 1 2 5 2 2 5 2 2 1 3 3 3 5 2 1 2 7 6 3 3 2 2 2 1 2 2 2 1 2 3 5 2 3 9 3 2 2 7 13 12 11 8 7 7 6 6 8 8 7
6 5 5 2 2 0 2 2 4 0 2 1 2 1 2 1 1 1 1 2 1 0 1 1 2 4 3 2 1 6 1 2 1 5 3 1 3 3 4 1 2 3 2 1 3 2 1 1 1 3 4 3 3 3 0 1 3 2 3 6 4 4 2 2 0 0 1 3 2 5 2 3 5 4 4 10 7 3 9 8 9 10 12 12 10 9 10 9
9 8 4 2 1 1 1 1 2 1 1 1 1 1 2 2 0 2 1 1 1 1 1 3 1 4 5 3 2 2 1 3 3 4 2 1 1 4 3 1 2 1 1 1 3 2 2 2 3 0 2 1 1 3 2 1 1 2 3 3 8 4 3 3 1 2 2 2 6 3 2 4 3 4 4 6 5 0 3 4 11 13 14 12 13 13 11 9
11 12 11 8 0 1 2 1 1 1 2 1 2 1 1 3 0 2 0 2 1 1 2 2 1 2 2 0 2 5 3 3 3 4 3 3 2 1 2 2 1 4 2 0 0 3 3 4 2 1 1 2 3 4 3 2 3 3 4 5 6 6 3 2 4 3 2 3 5 3 3 5 10 12 8 10 8 5 0 3 6 9 11 13 14 15 10 9
5 7 14 7 1 4 2 1 2 2 2 2 1 2 0 1 1 0 0 2 0 2 1 1 2 3 2 4 2 3 2 1 3 2 2 1 2 1 2 2 3 2 6 3 4 3 1 3 1 3 2 2 3 4 1 3 4 3 4 2 4 6 4 6 5 2 3 6 1 2 5 5 10 7 5 2 7 4 3 2 2 3 7 9 10 10 10 9
9 3 7 3 6 3 0 1 2 1 1 1 1 2 2 1 1 1 1 2 1 1 1 1 2 2 1 1 3 4 1 2 3 3 1 1 0 3 2 1 1 2 1 1 4 2 3 1 4 4 2 2 3 2 3 3 2 2 2 3 2 1 3 7 5 8 9 6 3 1 2 3 2 2 5 1 6 4 0 2 2 4 3 4 7 7 8 11
6 9 5 2 2 2 2 2 1 0 1 1 5 1 1 2 1 1 1 1 1 0 1 1 1 3 1 2 3 1 1 0 3 4 1 1 2 1 1 1 1 2 2 2 1 1 3 5 3 3 2 2 3 2 2 2 2 3 1 2 2 1 2 7 3 4 5 5 4 4 5 1 3 3 6 3 5 4 4 6 4 10 8 5 8 12 13 13
2 3 2 3 3 3 3 3 2 2 1 3 1 1 1 1 1 2 0 1 2 1 2 2 1 2 1 1 1 2 1 1 3 3 1 2 1 1 2 1 1 0 0 1 1 2 1 3 3 2 1 1 3 1 0 2 2 2 3 1 2 2 2 4 1 3 1 3 7 2 6 6 5 7 4 6 4 4 9 14 12 14 15 15 13 14 15 15
1 2 1 4 2 3 3 3 2 1 4 4 3 2 1 1 1 2 1 1 2 0 1 3 1 2 1 1 1 2 1 2 1 2 2 1 2 3 1 1 1 0 2 2 1 1 2 4 4 2 2 3 2 1 3 4 2 0 2 2 3 0 3 1 4 1 4 6 5 2 8 6 2 5 2 9 13 13 13 13 15 18 20 21 18 18 18 19
1 3 1 2 4 5 3 3 3 4 3 2 2 2 0 0 1 1 1 0 1 1 0 2 0 1 1 0 1 1 2 2 3 0 3 1 2 3 1 1 2 2 3 1 2 1 1 6 2 2 1 2 1 2 2 3 3 2 2 1 3 2 2 4 0 5 6 8 7 3 4 5 4 5 3 7 8 12 12 13 16 18 20 19 19 20 20 20
3 1 1 2 2 3 3 4 3 3 3 1 0 1 2 2 1 1 1 2 1 1 2 1 0 2 2 1 1 0 1 2 2 1 3 1 2 2 2 2 2 1 0 2 2 1 2 3 1 2 2 3 1 2 2 3 2 2 2 2 2 2 4 2 1 2 0 10 6 4 3 9 4 2 3 4 5 10 11 13 15 17 19 19 18 18 18 18
0 0 2 1 3 3 3 0 3 4 3 1 1 1 1 1 1 0 0 2 1 1 0 0 1 0 1 0 2 2 2 0 1 1 1 1 1 5 2 2 2 2 1 2 1 2 1 2 5 3 3 2 2 5 2 2 2 3 3 1 2 1 2 1 1 3 4 7 6 8 9 3 3 2 3 7 7 8 12 16 16 17 19 20 19 19 19 20
1 1 1 3 7 4 1 8 6 1 1 1 1 1 1 1 2 1 1 1 0 1 1 2 2 1 1 1 0 1 1 1 2 2 2 1 1 1 5 3 4 1 1 1 1 0 2 4 5 3 3 4 2 3 2 2 2 2 2 3 2 3 2 2 6 4 2 3 6 4 12 7 1 2 5 6 5 11 16 18 19 20 21 21 19 20 20 20
1 1 1 4 7 2 1 1 2 1 0 1 0 1 1 1 1 0 0 1 2 0 1 2 2 1 2 1 1 2 1 2 2 2 2 2 2 3 2 1 2 2 1 1 0 2 2 2 3 5 6 5 4 1 2 4 2 2 3 0 1 1 1 3 8 1 0 4 3 2 5 8 2 3 4 5 10 15 16 19 20 20 20 20 19 20 20 20
2 0 1 4 6 2 5 3 0 0 0 1 1 0 1 0 1 2 2 2 2 1 1 1 1 2 0 1 1 1 3 2 5 1 1 2 1 0 2 4 4 3 2 0 0 2 1 2 2 7 5 4 3 3 1 2 1 2 2 2 2 3 1 5 5 3 4 1 4 5 6 7 2 4 2 10 12 15 15 18 20 21 19 20 21 22 23 22
2 0 1 0 3 1 2 2 1 0 0 1 0 1 1 1 2 1 2 1 1 1 0 1 1 1 2 1 1 1 4 2 2 1 1 1 1 3 1 3 3 1 1 1 1 2 2 1 1 6 4 2 2 2 3 2 1 1 0 2 2 3 4 2 3 1 3 7 10 7 14 1 6 3 12 12 15 17 18 19 19 20 20 20 21 21 20 21
3 0 1 4 7 4 2 2 2 1 0 1 1 1 1 1 0 2 2 1 0 1 1 1 2 0 2 0 1 0 2 2 2 2 1 2 0 2 2 2 4 1 2 3 3 3 3 1 1 4 5 8 5 5 5 4 2 1 2 1 2 3 5 1 3 2 4 1 4 6 13 12 13 17 16 16 19 19 19 19 18 17 20 21 20 22 22 20
1 1 3 3 6 5 5 1 1 2 2 1 0 1 1 1 1 1 3 2 1 2 2 2 0 1 2 2 2 1 2 2 4 1 1 1 1 1 1 4 2 2 3 4 4 2 0 1 3 5 6 8 7 3 4 2 3 5 4 2 2 3 1 1 2 3 8 3 6 9 12 21 23 19 17 18 17 20 21 21 21 21 20 19 22 22 20 16
1 1 0 0 2 5 2 2 1 0 0 1 1 2 1 1 2 1 2 0 1 0 1 1 2 3 1 0 1 2 1 1 1 1 3 3 0 1 2 1 1 1 6 2 0 1 1 3 2 6 8 11 9 9 1 2 8 10 6 5 3 3 3 6 5 5 3 5 13 3 11 13 19 20 19 18 19 21 20 21 22 21 20 22 22 22 17 16
1 0 2 1 1 0 0 1 2 3 2 1 0 1 1 1 0 0 1 2 1 0 1 2 2 2 2 1 2 1 1 2 2 3 1 1 2 1 1 1 1 3 5 0 1 1 1 2 1 2 7 4 6 10 8 5 5 7 6 6 6 3 5 6 6 11 8 5 12 19 20 19 19 19 16 16 21 22 23 24 21 21 22 24 23 20 19 22
2 2 1 3 0 1 1 1 1 3 4 1 1 1 1 1 2 0 1 2 1 1 2 1 1 3 5 2 2 2 1 2 2 2 2 1 2 1 1 2 2 2 1 1 2 1 1 3 2 1 9 12 9 5 2 2 1 3 3 3 4 4 7 8 9 10 7 10 16 20 22 21 16 13 15 18 17 19 19 19 19 22 24 24 23 20 22 25
1 2 0 4 5 3 1 0 1 1 1 2 0 0 1 3 2 1 1 2 0 1 0 2 3 2 1 4 5 3 3 3 2 3 1 2 1 3 1 1 1 1 1 0 2 1 1 1 5 1 3 7 3 3 2 2 3 3 3 2 3 1 4 5 4 7 9 11 13 15 16 15 5 12 18 16 16 16 18 22 24 23 23 24 22 22 27 29
1 1 3 5 2 0 0 1 1 1 0 0 0 1 0 2 2 1 1 2 1 2 4 2 3 3 1 2 4 9 3 2 3 4 1 2 2 2 1 0 1 1 1 1 1 2 1 1 3 1 4 4 3 1 1 3 2 1 4 8 9 8 6 5 4 9 11 14 16 14 10 8 14 19 18 18 17 17 19 22 23 23 25 23 20 23 27 28
1 1 1 2 1 2 0 0 0 0 0 1 1 1 1 0 1 1 1 1 1 2 1 1 2 1 1 1 6 2 3 1 2 2 1 2 2 3 3 3 2 0 3 2 2 1 0 0 1 1 4 5 2 4 6 0 6 3 4 7 7 5 4 6 8 11 11 13 11 10 10 12 17 18 21 23 23 21 21 20 23 24 23 20 21 26 27 27
Wind_Direction
37 35 34 34 34 33 29 26 43 71 73 68 59 60 51 37 29 19 6 356 327 329 48 64 52 66 89 73 49 193 320 69 53 43 47 52 323 306 304 307 308 315 334 257 220 244 72 36 26 350 71 40 0 15 352 41 358 264 230 324 229 58 203 150 193 185 26 176 159 178 193 202 201 169 166 183 219 235 236 239 228 237 245 240 208 148 82 121
37 34 33 33 32 29 27 29 28 29 55 68 73 61 49 41 30 21 10 344 337 308 52 28 54 59 126 127 96 4 135 53 59 47 47 351 313 321 327 326 333 333 246 265 34 60 38 37 48 24 71 64 312 45 281 61 335 17 135 243 351 178 61 321 54 121 186 83 152 166 183 225 204 161 154 229 217 208 242 239 229 240 241 234 231 221 211 183
38 38 35 30 26 25 22 27 37 32 61 82 86 76 62 49 37 20 3 354 319 292 327 57 71 68 147 167 149 157 259 31 42 22 346 0 336 337 341 336 348 353 343 316 353 53 38 44 48 24 34 104 13 54 19 31 329 48 277 309 56 37 75 71 294 122 13 125 135 160 178 224 116 185 119 230 253 180 235 235 205 230 240 226 222 192 198 196
41 36 39 34 30 23 23 28 37 29 97 89 71 57 58 54 40 27 6 345 328 293 255 226 97 76 26 194 171 181 193 137 48 325 332 344 337 338 340 337 350 336 296 47 8 86 98 103 61 44 103 61 59 303 35 4 292 63 254 22 69 132 150 77 288 68 48 344 135 146 103 212 209 192 188 224 253 238 241 235 229 220 228 229 212 184 183 197
32 32 27 34 29 27 24 27 25 18 110 89 64 48 51 46 30 17 6 342 321 297 281 210 147 87 58 146 162 222 200 260 40 297 338 338 336 340 336 339 343 359 102 114 88 74 81 59 97 49 33 96 29 112 43 7 18 60 41 17 81 137 85 59 50 47 92 347 129 131 167 209 93 197 221 216 234 260 237 232 223 242 242 236 182 184 183 199
24 23 27 27 23 21 16 22 21 352 302 104 76 62 44 46 32 10 353 334 324 296 313 354 193 144 93 118 130 166 229 260 345 333 342 332 332 340 332 338 333 330 342 357 343 41 231 36 341 37 56 48 0 57 34 347 324 123 108 87 295 337 32 68 117 130 213 142 152 177 211 94 193 233 217 225 231 246 63 66 259 247 254 48 113 171 195 203
18 15 5 34 28 15 10 20 19 2 329 356 70 60 46 40 33 12 346 329 349 301 353 357 127 192 192 104 58 62 72 93 295 339 341 330 325 328 324 314 338 117 178 232 319 176 69 97 70 72 103 103 50 70 25 345 249 9 120 139 69 286 89 19 79 142 293 224 207 58 60 225 158 264 167 233 236 245 118 96 32 5 330 181 191 199 205 207
19 12 2 38 44 24 11 8 9 354 332 317 44 63 60 44 33 9 346 347 353 324 337 332 339 218 201 16 66 55 57 21 339 349 335 328 327 330 342 256 17 74 64 50 306 116 124 46 97 177 44 26 50 70 344 262 43 86 111 177 111 73 69 54 135 157 299 33 17 237 227 244 220 284 355 253 246 239 229 157 154 245 228 208 221 215 215 219
7 4 4 20 37 21 8 355 4 349 334 359 13 53 66 45 28 4 344 335 333 322 330 285 282 69 162 83 101 87 40 351 348 321 338 340 328 320 3 30 354 88 111 49 359 88 264 101 119 250 167 128 220 114 15 272 100 30 88 130 128 119 107 99 142 135 87 116 215 242 251 207 147 323 260 258 262 253 228 192 217 222 231 219 222 223 216 221
359 356 14 18 28 14 1 355 14 3 357 7 353 1 38 35 19 358 340 325 337 315 335 318 235 56 51 88 109 96 74 345 347 338 348 334 316 318 37 22 4 84 94 356 36 18 6 165 87 128 110 81 111 48 283 327 70 119 108 103 127 78 219 136 247 134 58 298 156 277 282 264 127 156 285 109 13 77 184 226 219 227 239 235 228 224 223 227
353 354 20 28 21 1 9 15 21 20 12 5 359 346 11 28 7 336 314 329 319 323 335 7 301 193 58 341 89 89 102 321 32 354 351 338 356 33 11 355 322 61 83 60 51 353 36 115 131 136 4 114 129 53 46 84 122 89 115 121 112 91 213 105 92 91 287 205 181 291 284 211 154 190 251 248 121 125 195 218 221 223 237 240 235 230 229 231
357 352 21 39 18 358 2 29 37 33 12 10 360 346 28 23 344 296 272 289 334 348 1 350 336 83 81 69 62 68 335 315 324 15 353 12 28 12 354 356 32 38 13 92 48 15 357 114 162 357 130 204 94 155 79 173 72 109 238 230 159 239 238 184 237 84 278 291 338 296 284 229 173 227 239 233 113 151 230 247 232 230 236 241 241 237 232 233
353 348 15 46 28 13 8 39 53 35 354 10 353 358 46 24 333 298 279 275 352 42 10 327 303 347 91 66 49 67 97 283 275 290 3 16 139 233 19 26 44 43 21 90 67 11 347 11 200 86 15 83 106 10 118 157 68 225 84 354 279 216 232 80 94 88 241 67 317 293 309 331 197 222 224 132 141 155 230 244 239 235 233 238 237 238 241 239
351 347 26 55 40 25 19 24 33 354 16 11 4 4 43 41 10 347 12 227 120 70 37 354 342 53 82 96 86 175 246 123 228 357 3 332 256 115 123 45 53 57 40 78 76 35 74 110 88 103 58 50 108 205 136 96 254 259 27 264 315 312 75 103 129 99 235 73 283 260 287 290 210 195 208 139 180 219 262 258 244 236 233 236 237 239 244 244
357 350 40 55 39 30 26 21 2 353 31 14 348 30 50 30 41 37 338 123 357 300 310 299 353 169 63 72 238 64 139 225 29 359 358 358 343 192 31 17 50 44 55 68 97 28 360 275 100 55 64 310 115 172 80 91 45 29 266 163 159 288 10 143 94 196 269 110 252 260 264 269 295 289 117 93 169 218 252 256 253 244 238 233 238 242 246 250
4 359 42 48 39 36 30 20 1 358 24 12 335 63 52 33 29 49 66 80 343 339 278 232 359 81 108 99 88 185 64 31 1 350 330 353 345 9 340 351 302 77 246 81 101 257 42 60 61 35 120 200 161 87 108 233 160 42 284 300 302 278 306 292 109 61 343 120 184 251 280 305 296 98 101 140 175 211 250 260 253 249 249 244 242 246 254 263
357 30 61 60 49 41 36 23 9 346 10 360 280 93 63 355 235 53 52 33 12 280 357 75 169 302 54 104 277 26 359 359 311 324 349 38 341 325 260 50 28 2 63 169 76 187 17 62 275 190 29 60 3 82 289 246 290 151 105 294 292 283 320 307 124 112 47 273 246 204 244 259 270 271 200 172 199 227 251 261 261 256 255 250 255 259 263 268
335 10 85 67 50 39 35 33 10 340 357 348 246 143 45 24 58 196 307 14 330 55 56 176 211 133 85 196 147 12 28 286 350 330 263 354 345 1 30 58 275 312 15 251 41 30 346 68 267 67 136 102 182 166 292 320 344 313 317 302 291 239 204 275 293 78 310 163 259 264 254 270 272 275 277 263 199 234 259 265 269 268 265 263 261 265 268 268
305 191 94 67 51 41 38 27 13 342 354 13 128 101 63 83 65 75 49 326 246 233 195 360 348 287 47 48 321 285 259 309 274 328 344 353 337 132 87 127 52 312 52 320 52 4 360 103 208 143 222 201 181 258 295 20 1 301 287 302 289 300 297 290 321 71 7 296 279 251 264 283 288 291 289 283 239 242 264 270 270 269 268 268 267 268 267 266
253 190 169 87 61 35 27 16 359 349 4 72 349 231 185 249 50 197 22 34 46 25 359 66 102 114 124 33 340 335 205 270 306 21 325 12 297 268 58 351 61 74 34 276 354 59 302 234 248 273 352 87 79 62 70 88 65 119 155 257 272 279 284 279 250 71 23 282 261 263 283 285 285 288 295 298 295 267 270 268 265 265 263 261 262 260 264 264
235 198 148 182 66 18 358 7 1 347 17 106 114 41 78 128 338 32 40 40 185 345 337 21 52 3 37 340 338 339 165 172 105 21 14 282 274 243 23 326 38 196 43 324 302 11 254 274 264 77 76 86 111 109 113 111 80 356 290 264 287 233 276 324 260 108 172 335 293 294 298 286 283 295 307 320 297 280 277 277 272 273 265 263 262 268 262 269
248 193 146 221 30 4 352 356 1 22 31 119 60 107 120 196 16 37 143 147 85 90 296 22 270 349 153 219 79 283 180 318 201 11 70 344 325 283 32 53 30 344 54 268 230 210 228 264 80 88 102 101 100 108 82 62 118 125 278 302 281 261 265 262 58 134 183 301 283 23 318 294 288 312 315 342 302 306 322 299 297 304 287 267 256 260 271 273
233 211 189 224 17 316 351 337 73 52 29 25 71 49 63 354 320 247 196 112 82 330 20 13 47 8 54 119 157 235 293 43 310 14 356 339 47 43 303 265 44 78 155 56 285 306 282 102 95 114 157 118 107 114 127 100 203 231 233 258 286 26 345 320 140 360 212 220 293 324 293 277 292 308 72 64 23 300 285 273 268 261 265 258 260 272 283 280
230 200 221 259 260 289 338 353 194 46 41 60 74 59 38 320 287 251 328 335 66 316 4 52 273 62 24 335 9 338 51 100 251 353 16 354 53 249 23 64 125 217 233 25 249 263 312 60 83 172 214 222 152 142 189 236 267 199 234 264 275 289 287 227 321 327 292 253 273 274 249 256 276 99 327 121 210 268 264 270 253 244 243 260 279 273 244 255
217 199 226 253 283 293 256 148 37 48 178 147 64 256 338 312 287 341 230 130 8 104 209 208 170 248 27 185 357 258 107 129 353 297 331 342 97 246 72 187 286 204 102 123 138 241 200 101 170 163 158 134 169 207 205 246 274 272 206 233 285 319 278 285 308 325 303 229 131 354 330 181 127 63 293 347 347 325 129 292 264 227 231 236 255 254 247 242
202 207 232 259 320 336 219 73 318 88 327 61 81 86 336 339 325 292 92 77 255 295 188 165 189 132 199 67 4 62 171 350 23 7 333 19 279 328 148 115 347 291 144 156 304 339 34 125 232 191 174 143 200 250 124 186 275 296 85 202 213 249 288 290 312 326 305 317 46 323 303 301 311 331 14 346 336 316 237 246 284 259 219 234 253 260 263 267
219 215 267 340 341 348 65 247 274 206 24 16 71 285 312 209 251 104 352 339 202 147 320 31 233 62 221 8 345 224 267 92 72 105 21 17 3 322 263 84 146 77 44 207 250 196 139 146 160 179 166 192 227 257 179 189 240 264 82 135 95 266 286 301 287 234 271 303 282 275 271 289 309 32 111 337 305 337 1 28 288 319 347 307 319 324 329 335
83 73 56 45 22 36 174 127 103 69 221 317 296 296 307 171 17 331 301 39 292 34 349 293 11 334 248 342 298 159 360 310 222 132 257 308 259 145 320 200 230 147 159 189 279 66 179 156 195 174 194 216 242 338 135 194 228 18 165 349 322 312 292 263 244 280 290 314 250 145 157 256 235 345 134 306 30 19 26 20 22 21 11 356 338 337 323 307
67 73 75 74 71 74 74 107 125 155 40 282 295 256 119 153 209 99 199 241 115 68 123 74 42 190 360 217 46 43 318 16 314 36 303 265 34 288 223 85 137 104 41 248 262 110 293 287 220 193 185 243 98 51 191 168 237 100 119 127 113 150 124 214 267 230 212 252 264 125 341 284 308 359 64 133 27 7 355 353 10 8 338 315 321 340 343 346
31 31 43 16 52 301 11 59 54 334 299 330 289 213 83 151 219 215 328 247 28 151 306 297 270 310 356 332 258 9 189 36 157 313 22 206 24 82 60 344 126 141 179 103 266 42 22 242 338 233 243 13 104 40 219 315 39 109 212 250 205 188 180 132 89 221 209 227 153 72 10 321 315 338 34 18 22 9 331 353 8 5 4 1 5 9 1 352
48 33 11 15 93 127 360 64 46 218 284 255 272 262 235 33 157 93 203 234 52 332 181 25 325 10 25 22 279 45 148 341 347 340 162 110 163 73 135 165 163 197 203 221 226 139 157 104 208 73 31 119 19 126 94 204 293 255 268 301 290 203 145 175 165 206 260 279 99 42 354 326 282 301 104 84 137 165 313 333 355 3 356 355 358 354 351 343
63 57 48 63 141 277 33 89 349 288 249 237 196 173 134 241 62 240 290 2 249 27 6 330 59 42 6 9 253 356 341 341 10 25 7 22 321 276 94 289 42 295 246 54 23 122 222 179 61 66 336 282 169 248 149 186 204 236 261 262 321 306 308 271 172 264 215 307 111 57 319 268 224 243 315 333 22 19 4 325 0 353 348 353 349 345 332 325
53 75 68 53 188 49 84 303 294 262 248 217 109 52 211 97 229 96 279 300 360 346 117 170 313 341 352 284 133 334 230 321 7 109 286 93 281 87 21 309 345 263 290 63 296 301 284 59 251 132 161 68 273 246 196 201 155 242 276 330 305 316 321 287 304 221 253 102 15 62 359 253 281 286 57 55 78 31 2 351 360 340 340 333 333 325 315 307
42 32 76 357 62 64 352 248 261 311 279 46 291 34 42 311 240 100 293 263 332 44 12 321 313 183 356 311 11 326 211 150 348 2 309 354 274 279 142 171 242 146 216 234 289 24 300 277 145 199 171 46 243 287 340 326 309 336 55 280 304 294 300 304 320 312 312 322 126 283 300 237 273 107 167 195 97 73 316 211 220 224 247 289 285 274 301 332
71 68 97 114 96 73 342 270 285 215 264 53 58 75 187 252 202 227 209 327 238 51 198 70 270 329 110 121 343 207 337 351 57 319 86 296 273 230 307 127 178 321 88 272 110 287 223 273 59 357 11 307 188 65 324 33 204 105 352 350 241 223 355 261 344 302 323 335 283 172 225 246 230 94 153 208 129 165 192 21 360 9 356 326 333 346 343 340
311 24 37 35 12 348 330 312 299 206 229 55 92 50 229 202 17 178 37 53 57 313 303 161 143 257 335 171 81 78 57 307 9 337 209 217 343 264 64 348 145 25 289 280 61 266 169 229 69 109 163 77 41 314 115 310 287 109 214 236 42 6 252 288 182 108 219 191 245 176 268 245 247 259 134 186 169 53 23 9 6 1 357 351 347 345 344 342
21 311 78 345 25 348 309 307 279 201 61 86 102 255 219 293 23 206 350 291 322 354 271 339 24 6 338 311 298 1 315 302 326 1 304 134 247 174 204 102 1 126 45 333 245 169 289 305 116 209 173 95 311 335 60 23 323 97 254 84 126 287 325 261 293 255 245 263 273 126 259 279 6 318 54 3 13 9 2 357 359 358 353 351 347 344 344 343
33 51 50 4 332 328 297 297 299 47 74 94 202 260 238 239 338 287 21 188 235 168 312 224 111 14 232 294 6 55 19 319 34 69 294 146 320 133 80 99 80 1 7 271 292 35 25 288 133 343 30 103 143 228 170 90 10 310 10 78 282 261 221 127 241 291 312 279 282 219 273 249 243 257 45 355 10 354 354 352 359 357 350 344 342 339 340 340
68 84 3 360 340 336 320 299 55 59 74 76 237 312 181 293 29 26 3 315 314 304 248 270 302 26 107 192 280 163 6 324 13 343 297 110 261 93 39 347 116 99 28 335 261 44 226 291 302 152 138 34 239 215 269 134 100 82 185 186 40 243 269 250 254 306 201 278 300 263 100 293 164 157 1 354 19 356 347 357 356 352 346 341 337 338 336 337
13 344 330 334 327 339 280 69 53 50 70 209 194 238 69 259 132 202 227 269 136 218 209 153 255 283 216 4 66 344 66 271 266 303 253 38 305 65 38 5 47 125 344 288 336 288 227 113 284 108 245 291 240 183 257 143 159 160 196 219 138 83 349 319 274 225 263 291 284 297 295 288 108 114 349 39 9 355 357 354 353 348 341 338 338 337 335 333
339 95 265 317 337 308 326 42 46 44 113 42 306 227 185 267 164 177 117 218 142 235 274 217 174 233 45 341 140 141 305 221 219 237 228 260 251 247 52 36 345 105 216 351 214 248 224 201 259 282 261 242 270 27 325 313 310 252 230 246 214 169 223 257 270 103 329 237 271 276 275 281 228 175 77 25 10 4 1 356 346 343 337 336 335 335 335 332
230 299 293 348 334 318 79 55 47 277 307 199 17 184 139 158 199 32 49 119 287 147 360 99 32 47 126 165 38 176 248 262 197 266 218 247 88 12 95 287 288 306 276 238 213 43 314 344 277 276 265 298 70 30 328 320 287 2 305 260 72 49 316 256 283 256 360 234 25 270 300 285 135 100 89 24 16 7 358 354 343 336 333 331 332 333 332 331
51 188 272 344 335 49 67 72 226 67 72 28 326 351 354 152 135 65 196 197 202 357 65 351 124 162 96 300 157 209 204 261 180 229 83 258 298 61 315 301 294 271 248 151 331 166 148 238 276 251 255 96 171 192 169 176 244 218 103 78 181 227 236 288 292 354 282 251 285 246 219 250 134 125 97 20 10 359 353 351 339 332 330 331 332 333 332 331
116 318 21 291 5 91 83 239 64 274 340 254 72 91 291 329 196 153 229 180 226 153 328 83 98 360 56 64 181 249 165 269 121 289 185 97 287 124 337 308 315 200 258 50 268 96 252 154 179 301 294 188 127 153 193 146 217 238 330 131 356 79 66 108 93 180 268 230 240 273 271 41 141 320 345 1 352 352 347 341 337 331 329 329 330 329 328 328
110 312 317 308 5 39 224 186 157 152 263 191 321 198 303 186 271 333 319 116 262 65 165 64 17 110 116 43 131 31 246 264 311 93 16 244 307 117 67 345 308 278 17 324 313 328 253 280 225 293 318 317 323 320 324 323 5 2 161 211 184 201 134 232 251 186 252 140 201 239 273 280 303 318 323 338 342 342 339 333 332 330 328 329 329 327 327 329
163 191 314 338 9 50 83 337 11 136 132 177 276 70 195 117 135 163 236 87 13 78 26 107 129 213 98 196 228 234 215 152 220 320 347 259 212 82 345 344 15 32 345 275 331 292 272 4 245 243 255 273 289 11 100 20 292 289 305 260 209 125 18 220 272 259 261 279 233 245 271 294 302 316 325 336 344 338 333 333 332 331 332 332 327 325 327 335
122 82 4 316 344 60 67 19 38 217 229 160 264 169 332 206 305 110 5 196 68 259 102 271 167 198 144 232 273 278 201 246 147 3 234 226 335 27 102 7 309 318 328 290 174 109 84 271 230 252 253 254 300 310 139 137 276 287 291 296 119 156 174 191 216 267 35 324 283 208 239 273 297 313 329 338 338 333 330 331 331 332 333 330 326 326 332 333
224 187 88 170 180 181 73 73 37 92 49 296 153 92 246 336 105 170 109 24 158 180 262 151 169 263 165 143 121 274 168 235 149 239 40 180 317 151 172 153 246 336 317 75 6 268 260 258 50 110 263 267 286 280 283 278 251 267 277 284 295 143 162 189 228 247 278 274 282 298 301 298 302 313 329 335 335 330 329 330 332 330 326 327 327 331 332 332
48 89 128 323 88 95 11 9 6 118 83 31 110 202 205 199 282 112 66 136 131 118 233 293 329 207 205 146 209 268 186 309 264 188 199 163 232 307 230 128 165 329 341 84 51 43 211 250 38 72 289 295 297 301 319 255 165 237 252 294 319 196 215 221 253 275 257 252 273 289 296 294 301 314 335 333 332 330 328 328 330 329 328 325 328 329 334 336
200 182 164 358 72 92 351 213 129 184 96 350 188 246 202 185 249 136 235 211 88 98 132 224 240 93 158 188 200 219 222 243 299 290 177 105 264 174 280 287 97 85 353 54 4 67 254 325 85 267 304 294 66 93 85 46 234 278 103 339 10 272 246 223 271 277 269 258 264 279 293 295 336 346 330 330 329 331 331 334 332 326 327 325 324 328 333 332
357 5 131 135 109 62 233 349 95 73 113 69 213 193 180 190 273 273 57 359 301 179 186 201 100 110 57 213 221 249 338 283 290 294 221 193 286 78 285 70 180 137 73 120 94 351 326 280 81 44 317 290 121 111 300 273 258 145 59 23 12 8 11 1 304 319 310 297 304 300 291 315 330 334 329 326 332 334 339 335 329 325 325 321 323 332 332 330
78 95 48 106 94 297 359 89 93 232 47 29 11 132 237 88 167 141 206 113 28 354 310 240 155 315 212 180 239 253 19 16 15 19 316 14 17 65 49 40 46 208 167 146 314 203 341 191 249 7 301 268 118 313 331 36 132 157 69 29 355 350 345 327 306 305 298 311 312 328 320 333 331 335 331 331 333 338 338 334 325 322 321 323 330 331 329 327